Location: *
(45.9500°N, 9.0833°E)
Time: 22:26:46
(UTC+00:00)

Tiros 1 despin weight - Pass Details

Date: 23 June 2021
Orbit: 593 x 642 km, 48.2° (Epoch: 02 August)

Event Time Altitude Azimuth Distance (km) Brightness Sun altitude
Rises 09:52:19 0° 287° (WNW) 2,829 ? 60.6°
Reaches altitude 10° 09:54:51 10° 275° (W) 1,928 ? 60.9°
Maximum altitude 09:58:35 27° 217° (SW) 1,146 ? 61.4°
Drops below altitude 10° 10:02:21 10° 159° (SSE) 1,936 ? 61.8°
Sets 10:04:53 0° 147° (SSE) 2,843 ? 62.2°
